Regional Weather Roundup
Issued by NWS

Home | Current Version | Previous Version | Text Only | Print | Product List | Glossary On
Versions: 1 2 3 4 5 6 7 8 9 10 11 12 13 14 15 16 17 18 19 20 21 22 23 24 25 26 27 28 29 30 31 32 33 34 35 36 37 38 39 40 41 42 43 44 45 46 47 48 49 50
000
ASUS45 KABQ 280810
RWRNM
NEW MEXICO REGIONAL WEATHER ROUNDUP
NATIONAL WEATHER SERVICE ALBUQUERQUE NM
200 AM MDT THU MAY 28 2015

NOTE: "FAIR" MEANS FEW OR NO CLOUDS BELOW 12,000 FEET AGL WITH NO
       SIGNIFICANT WEATHER OR OBSTRUCTIONS TO VISION.

      THIS PRODUCT IS RELEASED AS TWO VERSIONS.  ONE VERSION NEAR
      THE TOP OF THE HOUR CONTAINING PRELIMINARY DATA FROM ALBUQUERQUE
      AND OTHER STATIONS.  A FINAL VERSION WITH ADDITIONAL DATA IS
      ISSUED ABOUT 10 MINUTES AFTER THE HOUR.

NMZ501-503-504-510>518-280900-
NORTHWEST PLATEAU/NORTHCENTRAL MOUNTAINS

CITY           SKY/WX    TMP DP  RH WIND       PRES   REMARKS
FARMINGTON     CLEAR     49  39  68 N8        30.07S
LOS ALAMOS     CLOUDY    60  29  30 W7        30.17F
SANTA FE       MOCLDY    52  33  48 W6        30.11S
TAOS           MOCLDY    48  30  49 CALM      30.18F
ANGEL FIRE     FAIR      39  34  81 SE7       30.27F WCI  34

$$
NMZ402-403-502-505>509-280900-
WESTCENTRAL MOUNTAINS/SOUTHWEST MOUNTAINS

CITY           SKY/WX    TMP DP  RH WIND       PRES   REMARKS
GALLUP         PTCLDY    45  31  58 E5        30.17F
GRANTS         MOCLDY    44  29  54 NW8       30.19F
SILVER CITY      N/A     57  14  18 NW15      30.11S

$$
NMZ407-409-411-412-280900-
SOUTHERN DESERTS

CITY           SKY/WX    TMP DP  RH WIND       PRES   REMARKS
LORDSBURG      FAIR      55  12  18 W7        30.04S
DEMING         CLEAR     55  16  21 SW8       30.03S
LAS CRUCES     PTCLDY    60  16  18 W5        30.03S
HOLLOMAN AFB   MOCLDY    73  54  50 S17G23    29.98S
ALAMOGORDO     MOCLDY    77  37  24 SW9G17    29.99F
T OR C         PTCLDY    63  15  15 W8        30.03F

$$
NMZ519>523-280900-
CENTRAL VALLEYS/CENTRAL HIGHLANDS

CITY           SKY/WX    TMP DP  RH WIND       PRES   REMARKS
ALBUQUERQUE    PTCLDY    57  33  40 E8        30.07S
DOUBLE EAGLE   MOCLDY    56  37  48 N7        30.10S
MORIARTY ARPT  FAIR      43  37  81 CALM      30.13S
CLINES CORNERS PTCLDY    52  28  39 S9        30.15F
BELEN          FAIR      55  36  48 SW5       30.08R
SOCORRO        FAIR      63  22  21 SW3       30.04S

$$
NMZ524>526-539-540-280900-
SOUTHCENTRAL MOUNTAINS

CITY           SKY/WX    TMP DP  RH WIND       PRES   REMARKS
RUIDOSO        PTCLDY    54  41  62 NW3       30.20S

$$
NMZ527>531-280900-
NORTHEAST HIGHLANDS/NORTHEAST PLAINS

CITY           SKY/WX    TMP DP  RH WIND       PRES   REMARKS
LAS VEGAS      PTCLDY    48  32  53 NE6       30.16F
RATON          MOCLDY    51  44  77 NE12      30.11F
CLAYTON        MOCLDY    57  55  93 S8        30.08S

$$
NMZ532>537-280900-
EASTCENTRAL PLAINS

CITY           SKY/WX    TMP DP  RH WIND       PRES   REMARKS
TUCUMCARI      CLEAR     65  55  70 S7        30.03S
CANNON AFB     CLEAR     59  57  91 E6        30.09R
CLOVIS AIRPORT PTCLDY    57  54  88 SE5         N/A

$$
NMZ028-029-538-280900-
SOUTHEAST PLAINS

CITY           SKY/WX    TMP DP  RH WIND       PRES   REMARKS
ROSWELL        CLEAR     66  59  78 S8        30.00S
ARTESIA        CLEAR     68  59  73 S12       30.00F
CARLSBAD       CLEAR     71  59  65 S9        29.98F
HOBBS          CLEAR     64  64 100 S9        30.02S


$$


USA.gov is the U.S. government's official web portal to all federal, state and local government web resources and services.